TimeCST,TemperatureF,Dew PointF,Humidity,Sea Level PressureIn,VisibilityMPH,Wind Direction,Wind SpeedMPH,Gust SpeedMPH,PrecipitationIn,Events,Conditions,WindDirDegrees,DateUTC
12:55 AM,19.9,12.0,71,30.07,10.0,NNW,9.2,-,N/A,,Mostly Cloudy,340,2013-01-13 06:55:00
1:55 AM,19.0,10.9,71,30.07,10.0,NNW,8.1,-,N/A,,Scattered Clouds,330,2013-01-13 07:55:00
2:04 AM,19.4,12.2,74,30.02,10.0,NW,10.4,-,N/A,,Mostly Cloudy,320,2013-01-13 08:04:00
2:55 AM,18.0,10.0,71,30.13,10.0,NW,9.2,-,N/A,,Mostly Cloudy,320,2013-01-13 08:55:00
3:06 AM,17.6,8.6,68,30.08,10.0,NNW,11.5,-,N/A,,Scattered Clouds,330,2013-01-13 09:06:00
3:55 AM,15.1,7.0,70,30.11,10.0,NNW,6.9,-,N/A,,Clear,330,2013-01-13 09:55:00
4:55 AM,14.0,7.0,74,30.12,10.0,NNW,4.6,-,N/A,,Clear,330,2013-01-13 10:55:00
5:55 AM,14.0,7.0,74,30.14,10.0,NNW,6.9,-,N/A,,Clear,330,2013-01-13 11:55:00
6:55 AM,12.9,5.0,71,30.19,10.0,NW,9.2,-,N/A,,Clear,320,2013-01-13 12:55:00
7:55 AM,12.0,3.9,70,30.20,10.0,NW,6.9,-,N/A,,Clear,310,2013-01-13 13:55:00
8:55 AM,12.9,5.0,71,30.19,10.0,NW,10.4,-,N/A,,Clear,320,2013-01-13 14:55:00
9:55 AM,15.1,7.0,70,30.23,10.0,NW,8.1,-,N/A,,Scattered Clouds,310,2013-01-13 15:55:00
10:12 AM,15.8,6.8,68,30.16,10.0,WNW,6.9,-,N/A,,Mostly Cloudy,300,2013-01-13 16:12:00
10:55 AM,17.1,8.1,68,30.24,10.0,NW,9.2,-,N/A,,Mostly Cloudy,310,2013-01-13 16:55:00
11:55 AM,19.0,10.0,68,30.20,10.0,WNW,13.8,-,N/A,,Mostly Cloudy,290,2013-01-13 17:55:00
12:04 PM,19.4,10.4,68,30.15,10.0,WNW,9.2,-,N/A,,Scattered Clouds,290,2013-01-13 18:04:00
12:55 PM,19.9,9.0,62,30.19,10.0,WNW,15.0,19.6,N/A,,Clear,290,2013-01-13 18:55:00
1:55 PM,21.9,10.0,60,30.20,10.0,WNW,10.4,-,N/A,,Clear,290,2013-01-13 19:55:00
2:55 PM,21.9,9.0,58,30.23,10.0,West,12.7,-,N/A,,Clear,280,2013-01-13 20:55:00
3:55 PM,21.9,10.0,60,30.26,10.0,West,9.2,-,N/A,,Clear,280,2013-01-13 21:55:00
4:55 PM,19.9,9.0,62,30.27,10.0,WNW,5.8,-,N/A,,Clear,290,2013-01-13 22:55:00
5:55 PM,18.0,9.0,68,30.31,10.0,WNW,5.8,-,N/A,,Clear,290,2013-01-13 23:55:00
6:55 PM,17.1,9.0,71,30.32,10.0,WNW,3.5,-,N/A,,Clear,290,2013-01-14 00:55:00
7:55 PM,16.0,8.1,71,30.33,10.0,NW,5.8,-,N/A,,Clear,310,2013-01-14 01:55:00
8:55 PM,12.9,7.0,77,30.34,10.0,WNW,3.5,-,N/A,,Clear,290,2013-01-14 02:55:00
9:55 PM,12.0,7.0,80,30.36,10.0,WNW,3.5,-,N/A,,Clear,290,2013-01-14 03:55:00
10:55 PM,10.4,6.8,85,30.31,10.0,WNW,5.8,-,N/A,,Clear,290,2013-01-14 04:55:00
11:55 PM,12.9,6.1,74,30.38,10.0,NW,4.6,-,N/A,,Clear,310,2013-01-14 05:55:00